DW6455 Orivesi FI current weather conditions

sailwx.info

Wind from 028 at 7 knots gusting 15

Air temperature 16.1° C
Dewpoint 1.4° C

Last reported at 2017-May-26 13:02 UTC.
Time now 2017-May-26 13:14 UTC

Location: N 61°39' E 024°21'.
View on Google Maps.

See reports from other nearby stations

  
Tides and Currents Weather Stations Pressure Air Temp Water Temp Dewpoint Dewpoint Depression Visibility Wind Speed Wind Dir Waves Ship Positions
date/time (UTC)wind fromknots sea level pressurealtimeterstation pressurevisibilityair tempwater tempwave heightnotes
2017-May-26 13:02 028 7 gusting 15 16.1
2017-May-26 12:57 355 7 gusting 15 16.7
2017-May-26 12:52 042 7 gusting 16 16.7
2017-May-26 12:47 348 7 gusting 16 16.7
2017-May-26 12:42 011 6 gusting 16 16.7
2017-May-26 12:37 324 7 gusting 16 16.7
2017-May-26 12:32 319 8 gusting 18 16.1
2017-May-26 12:27 027 7 gusting 18 16.7
2017-May-26 12:22 011 8 gusting 17 16.1
2017-May-26 12:17 347 8 gusting 17 16.1
2017-May-26 12:12 015 6 gusting 19 16.1
2017-May-26 12:07 348 6 gusting 14 16.1
2017-May-26 12:02 009 7 gusting 14 16.1
2017-May-26 11:57 011 7 gusting 14 16.7
2017-May-26 11:52 343 6 gusting 15 16.7
2017-May-26 11:47 060 5 gusting 15 16.7
2017-May-26 11:42 005 6 gusting 15 16.7
2017-May-26 11:37 355 6 gusting 15 16.1
2017-May-26 11:32 015 6 gusting 14 16.1
2017-May-26 11:27 355 6 gusting 14 15.6
2017-May-26 11:22 355 8 gusting 13 15.6
2017-May-26 11:17 355 7 gusting 13 16.1
2017-May-26 11:12 346 6 gusting 16 16.1
2017-May-26 11:07 355 6 gusting 16 16.1
2017-May-26 11:02 345 6 gusting 13 16.1
2017-May-26 10:57 346 6 gusting 13 16.1
2017-May-26 10:52 331 5 gusting 14 16.1
2017-May-26 10:47 336 7 gusting 14 15.6
2017-May-26 10:42 015 8 gusting 13 16.1
2017-May-26 10:37 009 6 gusting 13 16.1
2017-May-26 10:32 355 5 gusting 13 16.7
2017-May-26 10:27 329 6 gusting 12 16.1
2017-May-26 10:22 013 6 gusting 12 16.1
2017-May-26 10:17 319 6 gusting 13 16.1
2017-May-26 10:12 355 6 gusting 13 15.6
2017-May-26 10:07 048 6 gusting 13 15.6
2017-May-26 10:02 030 6 gusting 13 15.6
2017-May-26 09:57 340 5 gusting 13 15.6
2017-May-26 09:52 340 6 gusting 13 15.6
2017-May-26 09:47 005 6 gusting 13 15.6
2017-May-26 09:42 012 5 gusting 13 15.6
2017-May-26 09:37 15.6
2017-May-26 09:32 016 6 gusting 13 15.6
2017-May-26 09:27 347 6 gusting 10 15.6
2017-May-26 09:22 331 5 gusting 10 15.6
2017-May-26 09:17 334 5 gusting 10 15.6
2017-May-26 09:12 342 5 gusting 13 15.6
2017-May-26 09:07 005 5 gusting 13 15.6
2017-May-26 09:02 347 6 gusting 13 15.6
2017-May-26 08:57 030 6 gusting 13 15.6
2017-May-26 08:52 018 6 gusting 12 15.6
2017-May-26 08:47 355 6 gusting 12 15.6
2017-May-26 08:42 340 5 gusting 13 15.6
2017-May-26 08:37 331 6 gusting 13 15.6
2017-May-26 08:32 337 6 gusting 14 15.6
2017-May-26 08:27 342 7 gusting 14 15.6
2017-May-26 08:22 053 6 gusting 16 16.1
2017-May-26 08:17 347 6 gusting 16 15.6
2017-May-26 08:12 342 7 gusting 13 15.6
2017-May-26 08:07 344 6 gusting 13 15.6
2017-May-26 08:02 355 6 gusting 12 15.0
2017-May-26 07:57 005 6 gusting 12 15.0
2017-May-26 07:52 319 5 gusting 14 15.0
2017-May-26 07:47 330 5 gusting 14 15.6
2017-May-26 07:42 346 5 gusting 14 15.0
2017-May-26 07:37 346 4 gusting 14 15.0
2017-May-26 07:32 009 4 gusting 10 14.4
2017-May-26 07:27 016 5 gusting 10 14.4
2017-May-26 07:22 14.4
2017-May-26 07:17 015 4 gusting 10 13.9
2017-May-26 07:12 005 4 gusting 10 13.9
2017-May-26 07:07 015 4 gusting 10 13.9
2017-May-26 07:02 005 3 gusting 9 13.3
2017-May-26 06:57 005 3 gusting 9 12.8
2017-May-26 06:52 351 5 gusting 9 12.8
2017-May-26 06:47 026 4 gusting 9 12.2
2017-May-26 06:42 342 3 gusting 8 11.7
2017-May-26 06:37 342 4 gusting 8 11.7
2017-May-26 06:32 346 3 gusting 8 11.7
2017-May-26 06:27 005 3 gusting 8 11.7
2017-May-26 06:22 11.7
2017-May-26 06:17 005 2 gusting 9 11.7
2017-May-26 06:12 12.2
2017-May-26 06:07 005 2 gusting 6 12.2
2017-May-26 06:02 355 1 gusting 4 12.2
2017-May-26 05:57 351 1 gusting 4 11.7
2017-May-26 05:52 350 1 gusting 3 11.7
2017-May-26 05:47 355 0 gusting 3 11.7
2017-May-26 05:42 355 0 gusting 5 11.7
2017-May-26 05:37 355 0 gusting 5 11.7
2017-May-26 05:32 351 1 gusting 4 11.1
2017-May-26 05:27 349 1 gusting 4 11.1
2017-May-26 05:22 340 1 gusting 6 11.1
2017-May-26 05:17 339 1 gusting 6 11.1
2017-May-26 05:12 339 1 gusting 7 11.1
2017-May-26 05:07 355 1 gusting 7 11.1
2017-May-26 05:02 11.1
2017-May-26 04:57 341 3 gusting 7 11.1
2017-May-26 04:52 346 2 gusting 5 11.1
2017-May-26 04:47 346 1 gusting 5 11.1
2017-May-26 04:42 350 1 gusting 5 10.6
2017-May-26 04:37 355 1 gusting 5 10.6
2017-May-26 04:32 350 1 gusting 5 10.6
2017-May-26 04:27 339 1 gusting 5 10.0
2017-May-26 04:22 339 0 gusting 3 10.0
2017-May-26 04:17 325 10.0
2017-May-26 04:12 324 9.4
2017-May-26 04:07 323 0 gusting 2 9.4
2017-May-26 04:02 323 0 gusting 2 9.4
2017-May-26 03:57 309 9.4
2017-May-26 03:52 308 9.4
2017-May-26 03:47 308 8.9
2017-May-26 03:42 308 8.9
2017-May-26 03:37 308 0 gusting 3 8.9
2017-May-26 03:32 308 0 gusting 3 8.9
2017-May-26 03:27 308 0 gusting 1 8.9
2017-May-26 03:22 308 0 gusting 1 8.9
2017-May-26 03:17 346 0 gusting 1 8.9
2017-May-26 03:12 346 8.9
2017-May-26 03:07 346 8.9
2017-May-26 03:02 346 8.9
2017-May-26 02:57 346 8.3
2017-May-26 02:52 346 8.3
2017-May-26 02:47 346 0 gusting 2 8.3
2017-May-26 02:42 346 0 gusting 1 7.8
2017-May-26 02:37 346 7.8
2017-May-26 02:32 346 7.2
2017-May-26 02:27 346 6.7
2017-May-26 02:22 346 6.1
2017-May-26 02:17 346 6.1
2017-May-26 02:12 346 6.1
2017-May-26 02:07 346 5.6
2017-May-26 02:02 346 5.6
2017-May-26 01:57 346 5.6
2017-May-26 01:52 346 5.6
2017-May-26 01:47 346 5.6
2017-May-26 01:42 346 5.6
2017-May-26 01:37 346 5.6
2017-May-26 01:32 346 5.6
2017-May-26 01:27 346 6.1
2017-May-26 01:22 346 6.1
2017-May-26 01:17 346 6.1
2017-May-26 01:12 346 6.1
2017-May-26 01:07 346 6.1
2017-May-26 01:02 346 0 gusting 4 6.1
2017-May-26 00:57 340 0 gusting 4 6.1
2017-May-26 00:52 336 0 gusting 4 6.1
2017-May-26 00:47 336 0 gusting 3 6.7
2017-May-26 00:42 336 0 gusting 3 6.7
2017-May-26 00:37 336 0 gusting 5 6.7
2017-May-26 00:32 335 0 gusting 5 6.7
2017-May-26 00:27 335 0 gusting 5 6.7
2017-May-26 00:22 325 0 gusting 5 6.7
2017-May-26 00:17 331 0 gusting 4 6.7
2017-May-26 00:12 311 0 gusting 4 6.7
2017-May-26 00:07 308 0 gusting 5 6.7
2017-May-26 00:02 303 0 gusting 5 7.2
2017-May-25 23:57 303 0 gusting 5 7.2
2017-May-25 23:52 302 0 gusting 4 7.2
2017-May-25 23:47 303 0 gusting 4 7.2
2017-May-25 23:42 289 0 gusting 4 7.8
2017-May-25 23:37 308 0 gusting 5 7.8
2017-May-25 23:32 327 0 gusting 5 7.8
2017-May-25 23:27 330 0 gusting 6 7.8
2017-May-25 23:22 346 0 gusting 6 7.8
2017-May-25 23:17 331 1 gusting 6 7.8
2017-May-25 23:12 312 1 gusting 7 7.8
2017-May-25 23:07 297 1 gusting 7 8.3
2017-May-25 23:02 326 1 gusting 7 8.3
2017-May-25 22:57 294 1 gusting 6 8.3
2017-May-25 22:52 306 1 gusting 6 8.3
2017-May-25 22:47 290 2 gusting 6 8.3
2017-May-25 22:42 335 1 gusting 6 8.3
2017-May-25 22:37 306 2 gusting 6 8.3
2017-May-25 22:32 324 1 gusting 6 8.3
2017-May-25 22:27 326 1 gusting 6 8.3
2017-May-25 22:22 296 1 gusting 6 8.3
2017-May-25 22:17 309 1 gusting 6 8.3
2017-May-25 22:12 288 1 gusting 6 8.3
2017-May-25 22:07 331 0 gusting 4 8.3
2017-May-25 22:02 311 0 gusting 4 8.3
2017-May-25 21:57 330 0 gusting 4 8.3
2017-May-25 21:52 318 0 gusting 4 8.3
2017-May-25 21:47 319 0 gusting 7 8.9
2017-May-25 21:42 312 0 gusting 7 8.9
2017-May-25 21:37 313 0 gusting 7 8.9
2017-May-25 21:32 309 0 gusting 7 8.9
2017-May-25 21:27 309 1 gusting 3 8.9
2017-May-25 21:22 309 0 gusting 3 9.4
2017-May-25 21:17 313 0 gusting 3 9.4
2017-May-25 21:12 311 0 gusting 3 9.4
2017-May-25 21:07 311 0 gusting 6 9.4
2017-May-25 21:02 311 0 gusting 6 9.4
2017-May-25 20:57 323 1 gusting 6 10.0
2017-May-25 20:52 306 1 gusting 6 10.0
2017-May-25 20:47 305 1 gusting 6 10.0
2017-May-25 20:42 296 1 gusting 6 10.0
2017-May-25 20:37 301 1 gusting 4 10.6
2017-May-25 20:32 311 1 gusting 4 10.6
2017-May-25 20:27 306 1 gusting 4 10.6
2017-May-25 20:22 317 1 gusting 4 10.6
2017-May-25 20:17 316 1 gusting 4 10.6
2017-May-25 20:12 309 1 gusting 4 11.1
2017-May-25 20:07 307 1 gusting 4 11.1
2017-May-25 20:02 311 0 gusting 4 11.1
2017-May-25 19:57 320 1 gusting 4 11.1
2017-May-25 19:52 323 1 gusting 4 11.7
2017-May-25 19:47 333 0 gusting 6 11.7
2017-May-25 19:42 335 0 gusting 6 11.7
2017-May-25 19:37 320 0 gusting 4 11.7
2017-May-25 19:32 319 1 gusting 4 12.2
2017-May-25 19:27 311 0 gusting 4 12.2
2017-May-25 19:22 295 0 gusting 4 12.2
2017-May-25 19:17 339 0 gusting 6 12.2
2017-May-25 19:12 335 0 gusting 6 12.8
2017-May-25 19:07 336 0 gusting 6 12.8
2017-May-25 19:02 333 0 gusting 6 12.8
2017-May-25 18:57 325 1 gusting 6 13.3
2017-May-25 18:52 317 1 gusting 6 13.3
2017-May-25 18:47 299 2 gusting 8 13.3
2017-May-25 18:42 296 2 gusting 8 13.3
2017-May-25 18:37 306 2 gusting 8 13.3
2017-May-25 18:32 306 2 gusting 8 13.3
2017-May-25 18:27 327 2 gusting 8 13.3
2017-May-25 18:22 303 3 gusting 8 13.3
2017-May-25 18:17 312 2 gusting 8 13.3
2017-May-25 18:12 335 2 gusting 8 13.3
2017-May-25 18:07 336 2 gusting 9 13.9
2017-May-25 18:02 349 2 gusting 9 13.9
2017-May-25 17:57 344 3 gusting 9 13.9
2017-May-25 17:52 323 3 gusting 9 13.9
2017-May-25 17:47 319 2 gusting 17 13.9
2017-May-25 17:42 005 3 gusting 17 14.4
2017-May-25 17:37 320 5 gusting 10 14.4
2017-May-25 17:32 319 5 gusting 10 14.4
2017-May-25 17:27 296 4 gusting 10 14.4
2017-May-25 17:22 330 4 gusting 10 14.4
2017-May-25 17:17 348 4 gusting 13 14.4
2017-May-25 17:12 325 4 gusting 13 14.4
2017-May-25 17:07 308 4 gusting 12 14.4
2017-May-25 17:02 321 4 gusting 12 15.0
2017-May-25 16:57 305 4 gusting 12 15.0
2017-May-25 16:52 355 3 gusting 12 15.0
2017-May-25 16:47 293 3 gusting 10 15.0
2017-May-25 16:42 305 3 gusting 10 14.4
2017-May-25 16:37 290 4 gusting 10 15.0
2017-May-25 16:32 309 3 gusting 11 15.0
2017-May-25 16:27 330 2 gusting 11 15.0
2017-May-25 16:22 300 3 gusting 11 15.0
2017-May-25 16:17 323 2 gusting 10 15.0
2017-May-25 16:12 341 3 gusting 10 15.0
2017-May-25 16:07 333 4 gusting 10 15.0
2017-May-25 16:02 338 3 gusting 10 15.6
2017-May-25 15:57 338 4 gusting 12 15.6
2017-May-25 15:52 310 5 gusting 12 15.6
2017-May-25 15:47 342 4 gusting 12 15.6
2017-May-25 15:42 297 4 gusting 12 15.6
2017-May-25 15:37 300 5 gusting 13 15.6
2017-May-25 15:32 331 5 gusting 13 15.6
2017-May-25 15:27 350 4 gusting 13 16.1
2017-May-25 15:22 281 4 gusting 12 16.1
2017-May-25 15:17 327 5 gusting 12 16.1
2017-May-25 15:12 313 6 gusting 12 16.1
2017-May-25 15:07 341 6 gusting 14 16.1
2017-May-25 15:02 344 5 gusting 14 16.7
2017-May-25 14:57 325 5 gusting 14 16.1
2017-May-25 14:52 345 4 gusting 14 16.1
2017-May-25 14:47 290 6 gusting 13 16.1
2017-May-25 14:42 292 6 gusting 13 16.1
2017-May-25 14:37 335 6 gusting 13 16.1
2017-May-25 14:32 349 6 gusting 13 16.1
2017-May-25 14:27 323 5 gusting 13 16.7
2017-May-25 14:22 348 5 gusting 13 16.1
2017-May-25 14:17 331 5 gusting 13 16.1
2017-May-25 14:12 355 5 gusting 13 16.1
2017-May-25 14:07 327 5 gusting 12 16.7
2017-May-25 14:02 327 5 gusting 12 16.7
2017-May-25 13:57 328 6 gusting 12 16.7
2017-May-25 13:52 319 5 gusting 12 16.1
2017-May-25 13:47 334 5 gusting 13 16.1
2017-May-25 13:42 303 5 gusting 13 16.1
2017-May-25 13:37 326 5 gusting 13 16.1
2017-May-25 13:32 355 5 gusting 13 16.1
2017-May-25 13:27 333 6 gusting 13 16.1
2017-May-25 13:22 005 5 gusting 13 16.7
2017-May-25 13:17 311 4 gusting 13 16.7
2017-May-25 13:12 347 5 gusting 13 16.7
2017-May-25 13:07 316 6 gusting 13 16.7
2017-May-25 13:02 322 4 gusting 13 16.7
2017-May-25 12:57 294 4 gusting 13 17.2
2017-May-25 12:52 333 5 gusting 13 17.2
2017-May-25 12:47 327 4 gusting 12 17.2
2017-May-25 12:42 313 4 gusting 12 17.2
2017-May-25 12:37 345 4 gusting 11 17.2
2017-May-25 12:32 344 4 gusting 11 17.2
2017-May-25 12:27 345 3 gusting 11 17.2
2017-May-25 12:22 333 3 gusting 11 16.7
2017-May-25 12:17 312 4 gusting 9 16.7
2017-May-25 12:12 309 5 gusting 9 16.7
2017-May-25 12:07 345 5 gusting 12 16.7
2017-May-25 12:02 336 4 gusting 12 16.7
2017-May-25 11:57 321 4 gusting 12 16.1
2017-May-25 11:52 341 4 gusting 8 16.1
2017-May-25 11:47 005 3 gusting 8 16.1
2017-May-25 11:42 338 2 gusting 8 16.1
2017-May-25 11:37 313 3 gusting 10 15.6
2017-May-25 11:32 325 3 gusting 10 15.6
2017-May-25 11:27 298 3 gusting 13 16.1
2017-May-25 11:22 324 3 gusting 13 16.1
2017-May-25 11:17 306 3 gusting 13 16.1
2017-May-25 11:12 304 5 gusting 12 16.7
2017-May-25 11:07 345 5 gusting 12 16.7
2017-May-25 11:02 339 4 gusting 12 17.2
2017-May-25 10:57 024 3 gusting 12 16.7
2017-May-25 10:52 331 3 gusting 12 16.1
2017-May-25 10:47 323 3 gusting 9 16.1
2017-May-25 10:42 344 2 gusting 9 16.7
2017-May-25 10:37 294 2 gusting 9 16.7
2017-May-25 10:32 336 3 gusting 10 16.7
2017-May-25 10:27 313 4 gusting 10 16.1
2017-May-25 10:22 355 4 gusting 10 16.7
2017-May-25 10:17 300 4 gusting 12 16.7
2017-May-25 10:12 340 5 gusting 12 16.7
2017-May-25 10:07 349 5 gusting 12 16.7
2017-May-25 10:02 318 4 gusting 12 16.7
2017-May-25 09:57 342 4 gusting 8 16.7
2017-May-25 09:52 324 5 gusting 8 17.2
2017-May-25 09:47 295 5 gusting 8 17.2
2017-May-25 09:42 340 4 gusting 8 16.7
2017-May-25 09:37 275 3 gusting 10 16.7
2017-May-25 09:32 305 4 gusting 10 16.7
2017-May-25 09:27 351 5 gusting 10 17.2
2017-May-25 09:22 346 5 gusting 12 16.7
2017-May-25 09:17 280 4 gusting 12 16.7
2017-May-25 09:12 019 3 gusting 12 16.7
2017-May-25 09:07 307 4 gusting 6 16.1
2017-May-25 09:02 334 4 gusting 6 16.1
2017-May-25 08:57 288 2 gusting 6 15.6
2017-May-25 08:52 315 2 gusting 6 15.6
2017-May-25 08:47 235 0 gusting 8 15.6
2017-May-25 08:42 250 1 gusting 8 15.0
2017-May-25 08:37 300 1 gusting 6 15.0
2017-May-25 08:32 246 2 gusting 6 14.4
2017-May-25 08:27 346 2 gusting 6 14.4
2017-May-25 08:22 304 1 gusting 6 14.4
2017-May-25 08:17 259 1 gusting 6 13.9
2017-May-25 08:12 289 2 gusting 6 13.9
2017-May-25 08:07 286 2 gusting 7 13.9
2017-May-25 08:02 290 2 gusting 7 13.3
2017-May-25 07:57 280 2 gusting 7 13.3
2017-May-25 07:52 303 2 gusting 5 13.3
2017-May-25 07:47 313 1 gusting 5 13.3
2017-May-25 07:42 336 0 gusting 5 13.9
2017-May-25 07:37 332 0 gusting 8 13.9
2017-May-25 07:32 332 1 gusting 8 13.9
2017-May-25 07:27 332 2 gusting 7 13.9
2017-May-25 07:22 336 2 gusting 7 13.9
2017-May-25 07:17 318 3 gusting 7 13.9
2017-May-25 07:12 331 2 gusting 3 13.9
2017-May-25 07:07 323 1 gusting 3 13.9
2017-May-25 07:02 315 0 gusting 3 14.4
2017-May-25 06:57 315 0 gusting 3 14.4
2017-May-25 06:52 315 0 gusting 3 14.4
2017-May-25 06:47 259 14.4
2017-May-25 06:42 259 14.4
2017-May-25 06:37 259 0 gusting 2 14.4
2017-May-25 06:32 259 0 gusting 2 14.4
2017-May-25 06:27 225 0 gusting 2 14.4
2017-May-25 06:22 330 0 gusting 2 13.9
2017-May-25 06:17 330 0 gusting 2 13.9
2017-May-25 06:12 330 0 gusting 2 13.9
2017-May-25 06:07 333 0 gusting 6 13.3
2017-May-25 06:02 333 0 gusting 6 12.8
2017-May-25 05:57 333 0 gusting 6 12.8
2017-May-25 05:52 333 0 gusting 6 12.2
2017-May-25 05:47 334 1 gusting 6 12.2
2017-May-25 05:42 334 1 gusting 6 12.2
2017-May-25 05:37 296 1 gusting 4 12.2
2017-May-25 05:32 304 1 gusting 4 12.2
2017-May-25 05:27 351 0 gusting 2 12.8
2017-May-25 05:22 312 0 gusting 2 12.8
2017-May-25 05:17 311 12.8
2017-May-25 05:12 311 12.8
2017-May-25 05:07 312 0 gusting 4 12.2
2017-May-25 05:02 311 1 gusting 4 11.7
2017-May-25 04:57 315 0 gusting 5 11.7
2017-May-25 04:52 315 0 gusting 5 11.7
2017-May-25 04:47 318 0 gusting 7 11.1
2017-May-25 04:42 294 1 gusting 7 11.1
2017-May-25 04:37 005 1 gusting 7 11.1
2017-May-25 04:32 306 1 gusting 11 11.1
2017-May-25 04:27 300 0 gusting 11 11.1
2017-May-25 04:22 319 1 gusting 11 11.1
2017-May-25 04:17 319 3 gusting 8 11.1
2017-May-25 04:12 310 4 gusting 8 11.1
2017-May-25 04:07 281 3 gusting 8 11.1
2017-May-25 04:02 312 2 gusting 8 11.1
2017-May-25 03:57 304 2 gusting 6 11.1
2017-May-25 03:52 284 2 gusting 6 10.6
2017-May-25 03:47 307 3 gusting 6 10.6
2017-May-25 03:42 313 2 gusting 6 10.6
2017-May-25 03:37 294 1 gusting 7 10.6
2017-May-25 03:32 331 1 gusting 7 10.6
2017-May-25 03:27 304 2 gusting 7 10.6
2017-May-25 03:22 315 2 gusting 2 10.6
2017-May-25 03:17 309 1 gusting 2 10.6
2017-May-25 03:12 315 0 gusting 2 10.6
2017-May-25 03:07 319 10.6
2017-May-25 03:02 319 10.6
2017-May-25 02:57 319 0 gusting 6 10.6
2017-May-25 02:52 319 0 gusting 1 10.6
2017-May-25 02:47 308 0 gusting 1 10.6
2017-May-25 02:42 313 10.0
2017-May-25 02:37 313 10.0
2017-May-25 02:32 313 10.0
2017-May-25 02:27 313 10.0
2017-May-25 02:22 313 10.0
2017-May-25 02:17 313 9.4
2017-May-25 02:12 313 9.4
2017-May-25 02:07 313 0 gusting 7 9.4
2017-May-25 02:02 313 0 gusting 7 9.4
2017-May-25 01:57 355 9.4
2017-May-25 01:52 349 0 gusting 5 9.4
2017-May-25 01:47 349 9.4
2017-May-25 01:42 321 0 gusting 5 10.0
2017-May-25 01:37 342 1 gusting 7 10.0
2017-May-25 01:32 327 0 gusting 7 10.0
2017-May-25 01:27 332 1 gusting 7 10.0
2017-May-25 01:22 329 1 gusting 7 10.0
2017-May-25 01:17 313 1 gusting 6 10.0
2017-May-25 01:12 309 2 gusting 6 10.0
2017-May-25 01:07 321 2 gusting 5 10.0
2017-May-25 01:02 323 1 gusting 5 10.0
2017-May-25 00:57 325 0 gusting 5 10.0
2017-May-25 00:52 311 0 gusting 3 10.0
2017-May-25 00:47 311 0 gusting 3 10.6
2017-May-25 00:42 311 10.6
2017-May-25 00:37 311 10.6
2017-May-25 00:32 005 0 gusting 5 11.1
2017-May-25 00:27 005 11.1
2017-May-25 00:22 278 11.1
2017-May-25 00:17 278 11.1
2017-May-25 00:12 263 0 gusting 3 11.1
2017-May-25 00:07 295 0 gusting 3 11.1
2017-May-25 00:02 277 11.1
2017-May-24 23:57 302 0 gusting 1 11.1
2017-May-24 23:52 225 11.1
2017-May-24 23:47 215 11.7
2017-May-24 23:42 215 0 gusting 2 11.7
2017-May-24 23:37 215 0 gusting 2 11.7
2017-May-24 23:32 215 0 gusting 2 11.7
2017-May-24 23:27 215 0 gusting 2 12.2
2017-May-24 23:22 215 12.2
2017-May-24 23:17 215 0 gusting 0 12.2
2017-May-24 23:12 215 12.2
2017-May-24 23:07 215 12.8
2017-May-24 23:02 215 12.8
2017-May-24 22:57 215 12.8
2017-May-24 22:52 215 0 gusting 2 12.8
2017-May-24 22:47 215 0 gusting 2 12.8
2017-May-24 22:42 215 0 gusting 2 12.8
2017-May-24 22:37 215 0 gusting 3 12.8
2017-May-24 22:32 215 0 gusting 3 13.3
2017-May-24 22:27 215 0 gusting 3 13.3
2017-May-24 22:22 215 0 gusting 3 13.3
2017-May-24 22:17 215 1 gusting 3 13.3
2017-May-24 22:12 215 1 gusting 3 13.3
2017-May-24 22:07 215 1 gusting 3 13.3
2017-May-24 22:02 215 1 gusting 3 13.9
2017-May-24 21:57 210 0 gusting 3 13.9
2017-May-24 21:52 232 13.9
2017-May-24 21:47 232 13.9
2017-May-24 21:42 232 0 gusting 2 13.9
2017-May-24 21:37 229 0 gusting 2 13.9
2017-May-24 21:32 289 0 gusting 2 13.9
2017-May-24 21:27 301 0 gusting 2 13.9
2017-May-24 21:22 303 0 gusting 2 13.9
2017-May-24 21:17 303 0 gusting 2 13.9
2017-May-24 21:12 304 13.9
2017-May-24 21:07 303 13.9
2017-May-24 21:02 303 13.9
2017-May-24 20:57 303 13.9
2017-May-24 20:52 303 13.9
2017-May-24 20:47 303 13.9
2017-May-24 20:42 303 13.9
2017-May-24 20:37 304 13.9
2017-May-24 20:32 303 1 gusting 3 13.9
2017-May-24 20:27 306 0 gusting 3 13.9
2017-May-24 20:22 246 0 gusting 3 13.9
2017-May-24 20:17 225 0 gusting 3 13.9
2017-May-24 20:12 225 0 gusting 3 13.3
2017-May-24 20:07 225 0 gusting 3 13.3
2017-May-24 20:02 221 0 gusting 3 13.3
2017-May-24 19:57 221 13.3
2017-May-24 19:52 221 13.3
2017-May-24 19:47 221 0 gusting 4 13.3
2017-May-24 19:42 221 0 gusting 4 13.3
2017-May-24 19:37 213 0 gusting 3 13.3
2017-May-24 19:32 211 0 gusting 3 13.3
2017-May-24 19:27 211 0 gusting 1 13.9
2017-May-24 19:22 211 0 gusting 1 13.9
2017-May-24 19:17 211 0 gusting 1 13.9
2017-May-24 19:12 212 13.9
2017-May-24 19:07 211 14.4
2017-May-24 19:02 212 14.4
2017-May-24 18:57 211 14.4
2017-May-24 18:52 211 15.0
2017-May-24 18:47 211 15.0
2017-May-24 18:42 211 15.6
2017-May-24 18:37 211 15.6
2017-May-24 18:32 211 16.1
2017-May-24 18:27 211 16.1
2017-May-24 18:22 211 16.7
2017-May-24 18:17 211 16.7
2017-May-24 18:12 211 16.7
2017-May-24 18:07 211 16.7
2017-May-24 18:02 211 16.7
2017-May-24 17:57 211 0 gusting 2 17.2
2017-May-24 17:52 211 0 gusting 3 17.2
2017-May-24 17:47 211 0 gusting 3 17.2
2017-May-24 17:42 211 0 gusting 3 17.8
2017-May-24 17:37 211 0 gusting 4 17.8
2017-May-24 17:32 211 0 gusting 4 17.8
2017-May-24 17:27 211 0 gusting 4 17.8
2017-May-24 17:22 211 0 gusting 4 17.8
2017-May-24 17:17 212 0 gusting 4 17.8
2017-May-24 17:12 212 1 gusting 4 17.8
2017-May-24 17:07 209 1 gusting 4 18.3
2017-May-24 17:02 207 1 gusting 4 18.3
2017-May-24 16:57 207 1 gusting 4 18.3
2017-May-24 16:52 204 0 gusting 4 18.3
2017-May-24 16:47 204 0 gusting 6 18.3
2017-May-24 16:42 165 1 gusting 6 18.3
2017-May-24 16:37 165 2 gusting 6 18.9
2017-May-24 16:32 162 3 gusting 5 18.9
2017-May-24 16:27 161 2 gusting 5 18.9
2017-May-24 16:22 168 1 gusting 5 19.4
2017-May-24 16:17 186 2 gusting 6 19.4
2017-May-24 16:12 151 2 gusting 6 19.4
2017-May-24 16:07 155 3 gusting 6 19.4
2017-May-24 16:02 168 2 gusting 6 19.4
2017-May-24 15:57 162 2 gusting 6 19.4
2017-May-24 15:52 161 3 gusting 6 19.4
2017-May-24 15:47 159 3 gusting 6 19.4
2017-May-24 15:42 155 4 gusting 6 19.4
2017-May-24 15:37 162 3 gusting 8 19.4
2017-May-24 15:32 175 2 gusting 8 19.4
2017-May-24 15:27 139 2 gusting 8 19.4
2017-May-24 15:22 142 2 gusting 8 19.4
2017-May-24 15:17 178 3 gusting 8 19.4
2017-May-24 15:12 163 4 gusting 8 20.0
2017-May-24 15:07 167 5 gusting 7 20.0
2017-May-24 15:02 165 5 gusting 7 20.0
2017-May-24 14:57 175 5 gusting 7 20.0
2017-May-24 14:52 166 4 gusting 8 20.0
2017-May-24 14:47 124 5 gusting 8 20.0
2017-May-24 14:42 169 5 gusting 8 20.0
2017-May-24 14:37 160 5 gusting 9 20.0
2017-May-24 14:32 159 6 gusting 9 20.0
2017-May-24 14:27 169 5 gusting 7 20.6
2017-May-24 14:22 165 4 gusting 7 20.6
2017-May-24 14:17 145 3 gusting 7 20.6
2017-May-24 14:12 148 3 gusting 10 20.6
2017-May-24 14:07 171 4 gusting 10 20.6
2017-May-24 14:02 178 6 gusting 10 20.6
2017-May-24 13:57 177 6 gusting 7 20.6
2017-May-24 13:52 157 4 gusting 7 20.6
2017-May-24 13:47 165 3 gusting 6 20.6
2017-May-24 13:42 146 5 gusting 6 20.6
2017-May-24 13:37 134 5 gusting 6 20.0
2017-May-24 13:32 140 4 gusting 6 20.0
2017-May-24 13:27 136 3 gusting 7 20.0
2017-May-24 13:22 153 3 gusting 7 20.0
2017-May-24 13:17 157 3 gusting 7 20.0
2017-May-24 13:12 152 4 gusting 6 20.0
2017-May-24 13:07 168 4 gusting 6 20.0
2017-May-24 13:02 169 3 gusting 6 20.0